User: anonymous   Login
Location: Fountain Hills
(33.6120°N, 111.7170°W)
Time: 20:56:41
(UTC-07:00)
Language:

Hamsat - Orbit

View from above orbital plane
View from above orbital plane
View from above satellite
View from above satellite

Ground track
Ground track

The orbit data is extracted from the following two-line orbital elements,

1 28650U 05017B   17290.48364110  .00000422  00000-0  50612-4 0  9996
2 28650  97.6659 260.7762 0025037  86.0044 274.4035 14.88772593674369
Epoch (UTC): 17 October 2017 11:36:26
Eccentricity: 0.0025037
inclination: 97.6659°
perigee height: 584 km
apogee height: 619 km
right ascension of ascending node: 260.7762°
argument of perigee: 86.0044°
revolutions per day: 14.88772593
mean anomaly at epoch: 274.4035°
orbit number at epoch: 67436

The dashed part of the orbit path shows where the satellite is in the earth's shadow,  

DLR